DIFAS EDFB-EDDF

Flight info

Callsign DIFAS
Flight time 0h 32m
Altitude 50000
Route GED DCT DF683 DCT DF680/STAY01
Aircraft BE58/L-SDFGRY/C

Departure

Time 2026-05-05 19:28
Airport Reichelsheim Airfield (EDFB)

Arrival

Time 2026-05-05 20:01
Airport Frankfurt Main Airport (EDDF)
Time Latitude Longitude Altitude Speed Heading
2026-05-05 19:07 50.33559 8.87696 400 ft 0 kts 273°
2026-05-05 19:24 50.33562 8.87681 401 ft 5 kts 305°
2026-05-05 19:24 50.33597 8.87706 399 ft 0 kts 52°
2026-05-05 19:24 50.33599 8.87715 398 ft 6 kts 94°
2026-05-05 19:25 50.33575 8.87803 395 ft 13 kts 136°
2026-05-05 19:25 50.33459 8.87815 399 ft 20 kts 177°
2026-05-05 19:25 50.33310 8.87822 405 ft 12 kts 180°
2026-05-05 19:25 50.33293 8.87835 405 ft 0 kts 112°
2026-05-05 19:27 50.33292 8.87838 405 ft 2 kts 112°
2026-05-05 19:27 50.33294 8.87899 405 ft 5 kts 41°
2026-05-05 19:27 50.33331 8.87895 405 ft 1 kts
2026-05-05 19:28 50.33624 8.87884 398 ft 89 kts 359°
2026-05-05 19:28 50.34371 8.87853 737 ft 107 kts
2026-05-05 19:28 50.35054 8.87771 1425 ft 102 kts 353°
2026-05-05 19:28 50.35789 8.87679 1980 ft 98 kts
2026-05-05 19:29 50.36427 8.87769 2505 ft 88 kts
2026-05-05 19:29 50.37099 8.87882 2751 ft 112 kts
2026-05-05 19:29 50.37964 8.88019 2952 ft 136 kts
2026-05-05 19:29 50.38967 8.88173 3075 ft 157 kts
2026-05-05 19:30 50.40120 8.88344 3071 ft 174 kts
2026-05-05 19:30 50.41358 8.88524 3065 ft 182 kts
2026-05-05 19:30 50.42636 8.88707 3059 ft 186 kts
2026-05-05 19:30 50.43893 8.88890 3058 ft 176 kts
2026-05-05 19:31 50.45057 8.89202 3040 ft 171 kts 24°
2026-05-05 19:31 50.45882 8.90497 3034 ft 169 kts 55°
2026-05-05 19:31 50.46541 8.92009 3031 ft 167 kts 58°
2026-05-05 19:31 50.46905 8.93713 3037 ft 165 kts 79°
2026-05-05 19:32 50.47131 8.95484 3040 ft 165 kts 79°
2026-05-05 19:32 50.47355 8.97253 3039 ft 165 kts 79°
2026-05-05 19:32 50.47579 8.99021 3040 ft 165 kts 79°
2026-05-05 19:32 50.47803 9.00791 3040 ft 166 kts 79°
2026-05-05 19:33 50.48027 9.02564 3040 ft 165 kts 79°
2026-05-05 19:33 50.48252 9.04336 3040 ft 165 kts 79°
2026-05-05 19:33 50.48477 9.06114 3041 ft 166 kts 79°
2026-05-05 19:33 50.48702 9.07891 3040 ft 166 kts 79°
2026-05-05 19:34 50.48926 9.09659 3037 ft 165 kts 79°
2026-05-05 19:34 50.49151 9.11430 3038 ft 165 kts 79°
2026-05-05 19:34 50.49375 9.13201 3038 ft 165 kts 79°
2026-05-05 19:35 50.49827 9.16750 3043 ft 166 kts 78°
2026-05-05 19:35 50.50094 9.18508 3045 ft 165 kts 77°
2026-05-05 19:35 50.50329 9.20277 3048 ft 166 kts 79°
2026-05-05 19:35 50.50356 9.22036 3041 ft 164 kts 111°
2026-05-05 19:36 50.49612 9.23327 3040 ft 159 kts 159°
2026-05-05 19:36 50.48550 9.23379 3049 ft 154 kts 193°
2026-05-05 19:36 50.47481 9.23249 3055 ft 156 kts 176°
2026-05-05 19:36 50.46403 9.23499 3055 ft 157 kts 173°
2026-05-05 19:37 50.45336 9.23788 3047 ft 158 kts 172°
2026-05-05 19:37 50.44256 9.24083 3048 ft 157 kts 172°
2026-05-05 19:37 50.43178 9.24376 3048 ft 157 kts 172°
2026-05-05 19:37 50.42098 9.24671 3048 ft 157 kts 172°
2026-05-05 19:38 50.41030 9.25033 3044 ft 158 kts 158°
2026-05-05 19:38 50.40301 9.26293 3046 ft 163 kts 109°
2026-05-05 19:38 50.40342 9.28043 3051 ft 163 kts 76°
2026-05-05 19:38 50.40616 9.29772 3056 ft 165 kts 76°
2026-05-05 19:39 50.40894 9.31526 3049 ft 166 kts 73°
2026-05-05 19:39 50.41373 9.33173 3048 ft 166 kts 60°
2026-05-05 19:39 50.41927 9.34770 3046 ft 167 kts 60°
2026-05-05 19:39 50.42484 9.36356 3046 ft 165 kts 59°
2026-05-05 19:40 50.43193 9.37756 3047 ft 163 kts 46°
2026-05-05 19:40 50.43973 9.39066 3042 ft 164 kts 38°
2026-05-05 19:40 50.45013 9.39584 3035 ft 158 kts 349°
2026-05-05 19:40 50.45930 9.38790 3047 ft 154 kts 314°
2026-05-05 19:41 50.46671 9.37565 3041 ft 154 kts 301°
2026-05-05 19:41 50.47034 9.36014 3049 ft 152 kts 281°
2026-05-05 19:41 50.47103 9.34361 3018 ft 153 kts 264°
2026-05-05 19:41 50.46808 9.32783 3019 ft 153 kts 233°
2026-05-05 19:42 50.45991 9.31721 3016 ft 153 kts 216°
2026-05-05 19:42 50.45381 9.31113 3010 ft 155 kts 211°
2026-05-05 19:42 50.44419 9.30355 3058 ft 153 kts 208°
2026-05-05 19:42 50.43619 9.29253 2921 ft 160 kts 237°
2026-05-05 19:43 50.43178 9.27702 2960 ft 155 kts 242°
2026-05-05 19:43 50.42376 9.26605 2960 ft 154 kts 211°
2026-05-05 19:43 50.41561 9.25541 2963 ft 152 kts 227°
2026-05-05 19:43 50.40930 9.24228 2962 ft 151 kts 247°
2026-05-05 19:44 50.40622 9.22692 3190 ft 146 kts 252°
2026-05-05 19:44 50.40331 9.21189 3435 ft 143 kts 252°
2026-05-05 19:44 50.40064 9.19696 3682 ft 142 kts 253°
2026-05-05 19:44 50.39805 9.18203 3932 ft 141 kts 253°
2026-05-05 19:45 50.39553 9.16721 4186 ft 140 kts 253°
2026-05-05 19:45 50.39308 9.15245 4430 ft 140 kts 253°
2026-05-05 19:45 50.39065 9.13769 4684 ft 140 kts 253°
2026-05-05 19:45 50.38813 9.12291 4941 ft 140 kts 251°
2026-05-05 19:46 50.38508 9.10779 4984 ft 153 kts 252°
2026-05-05 19:46 50.38230 9.09118 4986 ft 161 kts 253°
2026-05-05 19:46 50.37944 9.07386 4988 ft 166 kts 253°
2026-05-05 19:46 50.37652 9.05621 4984 ft 168 kts 253°
2026-05-05 19:47 50.37360 9.03863 4980 ft 170 kts 253°
2026-05-05 19:47 50.37033 9.02088 4980 ft 169 kts 243°
2026-05-05 19:47 50.36189 9.00874 4978 ft 170 kts 201°
2026-05-05 19:47 50.35017 9.00621 4980 ft 170 kts 186°
2026-05-05 19:48 50.33843 9.00517 4975 ft 168 kts 186°
2026-05-05 19:48 50.32677 9.00421 4975 ft 167 kts 185°
2026-05-05 19:48 50.31518 9.00329 4973 ft 167 kts 185°
2026-05-05 19:48 50.30359 9.00237 4974 ft 167 kts 185°
2026-05-05 19:49 50.29197 9.00147 4966 ft 167 kts 186°
2026-05-05 19:49 50.28127 8.99619 4957 ft 162 kts 221°
2026-05-05 19:49 50.27617 8.98092 4959 ft 163 kts 261°
2026-05-05 19:49 50.27772 8.96333 4966 ft 165 kts 282°
2026-05-05 19:50 50.28075 8.94605 4972 ft 165 kts 282°
2026-05-05 19:50 50.28380 8.92890 4972 ft 166 kts 282°
2026-05-05 19:50 50.28690 8.91151 4970 ft 166 kts 282°
2026-05-05 19:50 50.29002 8.89406 4971 ft 166 kts 282°
2026-05-05 19:51 50.29315 8.87666 4965 ft 166 kts 282°
2026-05-05 19:51 50.29624 8.85938 4968 ft 165 kts 282°
2026-05-05 19:51 50.29935 8.84212 4964 ft 165 kts 282°
2026-05-05 19:51 50.30082 8.82472 4961 ft 161 kts 256°
2026-05-05 19:52 50.29447 8.81107 4961 ft 160 kts 211°
2026-05-05 19:52 50.28348 8.80904 4962 ft 166 kts 172°
2026-05-05 19:52 50.27227 8.81350 4963 ft 166 kts 169°
2026-05-05 19:52 50.26106 8.81817 4962 ft 167 kts 168°
2026-05-05 19:53 50.24984 8.82288 4953 ft 167 kts 168°
2026-05-05 19:53 50.23862 8.82762 4958 ft 167 kts 168°
2026-05-05 19:53 50.22741 8.83242 4952 ft 167 kts 168°
2026-05-05 19:53 50.21634 8.83716 4954 ft 167 kts 168°
2026-05-05 19:54 50.20512 8.84197 4960 ft 167 kts 168°
2026-05-05 19:54 50.19407 8.84673 4971 ft 168 kts 168°
2026-05-05 19:54 50.18246 8.85165 4736 ft 178 kts 168°
2026-05-05 19:54 50.17026 8.85670 4500 ft 184 kts 168°
2026-05-05 19:55 50.15780 8.86182 4254 ft 186 kts 168°
2026-05-05 19:55 50.14523 8.86698 4013 ft 187 kts 168°
2026-05-05 19:55 50.13286 8.86903 3982 ft 174 kts 195°
2026-05-05 19:55 50.12213 8.86069 3754 ft 175 kts 218°
2026-05-05 19:56 50.11273 8.84870 3524 ft 169 kts 221°
2026-05-05 19:56 50.10405 8.83739 3263 ft 157 kts 223°
2026-05-05 19:56 50.09754 8.82388 3017 ft 159 kts 245°
2026-05-05 19:56 50.09326 8.80851 3003 ft 152 kts 247°
2026-05-05 19:57 50.08929 8.79296 3002 ft 159 kts 249°
2026-05-05 19:57 50.08523 8.77649 2947 ft 167 kts 250°
2026-05-05 19:57 50.08132 8.75964 2731 ft 164 kts 249°
2026-05-05 19:57 50.07731 8.74299 2511 ft 164 kts 249°
2026-05-05 19:58 50.07336 8.72647 2295 ft 161 kts 249°
2026-05-05 19:58 50.06952 8.71033 2079 ft 157 kts 250°
2026-05-05 19:58 50.06575 8.69438 1868 ft 157 kts 249°
2026-05-05 19:58 50.06193 8.67835 1657 ft 158 kts 249°
2026-05-05 19:59 50.05809 8.66230 1444 ft 158 kts 249°
2026-05-05 19:59 50.05424 8.64619 1221 ft 159 kts 249°
2026-05-05 19:59 50.05035 8.63006 1012 ft 157 kts 249°
2026-05-05 19:59 50.04688 8.61527 801 ft 136 kts 249°
2026-05-05 20:00 50.04385 8.60249 590 ft 115 kts 249°
2026-05-05 20:00 50.04124 8.59146 451 ft 102 kts 247°
2026-05-05 20:00 50.03888 8.58174 347 ft 84 kts 247°
2026-05-05 20:00 50.03725 8.57485 340 ft 55 kts 249°
2026-05-05 20:01 50.03620 8.57106 339 ft 21 kts 192°
2026-05-05 20:01 50.03566 8.57240 340 ft 14 kts 115°
2026-05-05 20:01 50.03519 8.57275 340 ft 3 kts 215°
2026-05-05 20:01 50.03519 8.57274 340 ft 0 kts 215°
2026-05-05 20:02 50.03499 8.57259 338 ft 10 kts 210°
2026-05-05 20:02 50.03436 8.57075 340 ft 30 kts 250°
2026-05-05 20:03 50.03350 8.56710 339 ft 41 kts 249°
2026-05-05 20:03 50.03243 8.56257 337 ft 44 kts 249°
2026-05-05 20:03 50.03127 8.55774 339 ft 74 kts 249°
2026-05-05 20:03 50.02965 8.55111 340 ft 51 kts 251°
2026-05-05 20:04 50.02862 8.54669 339 ft 39 kts 250°
2026-05-05 20:04 50.02772 8.54295 339 ft 35 kts 249°
2026-05-05 20:04 50.02690 8.53947 339 ft 34 kts 250°
2026-05-05 20:04 50.02566 8.53650 340 ft 34 kts 213°
2026-05-05 20:05 50.02458 8.53325 340 ft 35 kts 249°
2026-05-05 20:05 50.02372 8.52962 340 ft 32 kts 253°
2026-05-05 20:05 50.02186 8.52834 340 ft 33 kts 178°
2026-05-05 20:05 50.02109 8.52854 337 ft 11 kts 356°
2026-05-05 20:06 50.02191 8.52867 338 ft 4 kts 49°
2026-05-05 20:06 50.02191 8.52868 338 ft 0 kts 54°